• In Netherlands
  • List of Countries
  • For 7 days
  • Water Temperature
  • Satellite Maps
  • Weather Map
  • Weather Widgets
  • user-avatar
    Login

    Hourly Weather Shaki

    Today, 23 July, Sunday

    Time Temperature Precipitation Wind Pressure Humidity
    00:00 +28°C° 0 mm 2 mps 733 mmHg 26%
    01:00 +28°C° 0 mm 2 mps 732 mmHg 28%
    02:00 +28°C° 0 mm 2 mps 732 mmHg 30%
    03:00 +27°C° 0 mm 2 mps 732 mmHg 32%
    04:00 +28°C° 0 mm 2 mps 732 mmHg 33%
    05:00 +28°C° 0 mm 2 mps 732 mmHg 33%
    06:00 +29°C° 0 mm 2 mps 732 mmHg 34%
    07:00 +31°C° 0 mm 2 mps 732 mmHg 30%
    08:00 +34°C° 0 mm 2 mps 732 mmHg 26%
    09:00 +36°C° 0 mm 3 mps 731 mmHg 21%
    10:00 +37°C° 0 mm 3 mps 731 mmHg 20%
    11:00 +38°C° 0 mm 2 mps 731 mmHg 19%
    12:00 +39°C° 0 mm 2 mps 730 mmHg 18%
    13:00 +39°C° 0 mm 2 mps 730 mmHg 17%
    14:00 +39°C° 0 mm 2 mps 730 mmHg 17%
    15:00 +40°C° 0 mm 2 mps 730 mmHg 16%
    16:00 +39°C° 0 mm 2 mps 730 mmHg 18%
    17:00 +38°C° 0 mm 2 mps 730 mmHg 19%
    18:00 +38°C° 0 mm 2 mps 730 mmHg 20%
    19:00 +35°C° 0 mm 2 mps 731 mmHg 22%
    20:00 +32°C° 0 mm 2 mps 731 mmHg 24%
    21:00 +30°C° 0 mm 2 mps 732 mmHg 26%
    22:00 +30°C° 0 mm 2 mps 732 mmHg 28%
    23:00 +30°C° 0 mm 2 mps 732 mmHg 30%

    Tomorrow, 24 July, Monday

    Time Temperature Precipitation Wind Pressure Humidity
    00:00 +29°C° 0 mm 2 mps 732 mmHg 32%
    01:00 +29°C° 0 mm 2 mps 732 mmHg 33%
    02:00 +28°C° 0 mm 2 mps 732 mmHg 34%
    03:00 +28°C° 0 mm 2 mps 732 mmHg 35%
    04:00 +28°C° 0 mm 2 mps 732 mmHg 36%
    05:00 +28°C° 0 mm 2 mps 732 mmHg 38%
    06:00 +28°C° 0 mm 2 mps 732 mmHg 40%
    07:00 +30°C° 0 mm 2 mps 732 mmHg 34%
    08:00 +32°C° 0 mm 2 mps 732 mmHg 29%
    09:00 +33°C° 0 mm 1 mps 732 mmHg 23%
    10:00 +35°C° 0 mm 2 mps 732 mmHg 22%
    11:00 +36°C° 0 mm 3 mps 731 mmHg 20%
    12:00 +38°C° 0 mm 4 mps 731 mmHg 19%
    13:00 +38°C° 0 mm 4 mps 731 mmHg 18%
    14:00 +40°C° 0 mm 4 mps 731 mmHg 17%
    15:00 +40°C° 0 mm 5 mps 730 mmHg 17%
    16:00 +39°C° 0 mm 5 mps 730 mmHg 19%
    17:00 +37°C° 0 mm 4 mps 730 mmHg 21%
    18:00 +37°C° 0 mm 4 mps 730 mmHg 23%
    19:00 +35°C° 0 mm 4 mps 730 mmHg 25%
    20:00 +33°C° 0 mm 4 mps 730 mmHg 27%
    21:00 +30°C° 0 mm 3 mps 731 mmHg 30%
    22:00 +29°C° 0 mm 3 mps 731 mmHg 31%
    23:00 +28°C° 0 mm 3 mps 731 mmHg 33%

    Day after tomorrow, 25 July, Tuesday

    Time Temperature Precipitation Wind Pressure Humidity
    00:00 +27°C° 0 mm 3 mps 730 mmHg 35%
    01:00 +27°C° 0 mm 2 mps 730 mmHg 36%
    02:00 +27°C° 0 mm 2 mps 730 mmHg 36%
    03:00 +26°C° 0 mm 2 mps 730 mmHg 37%
    04:00 +27°C° 0 mm 2 mps 730 mmHg 37%
    05:00 +27°C° 0 mm 1 mps 730 mmHg 36%
    06:00 +28°C° 0 mm 1 mps 730 mmHg 36%
    07:00 +30°C° 0 mm 1 mps 730 mmHg 33%
    08:00 +31°C° 0 mm 2 mps 730 mmHg 31%
    09:00 +34°C° 0 mm 2 mps 730 mmHg 28%
    10:00 +35°C° 0 mm 2 mps 729 mmHg 26%
    11:00 +36°C° 0 mm 2 mps 729 mmHg 24%
    12:00 +37°C° 0 mm 2 mps 729 mmHg 22%
    13:00 +38°C° 0 mm 2 mps 728 mmHg 21%
    14:00 +38°C° 0 mm 2 mps 728 mmHg 20%
    15:00 +39°C° 0 mm 2 mps 727 mmHg 19%
    16:00 +38°C° 0 mm 2 mps 728 mmHg 20%
    17:00 +37°C° 0 mm 2 mps 728 mmHg 21%
    18:00 +37°C° 0 mm 2 mps 728 mmHg 21%
    19:00 +35°C° 0 mm 2 mps 728 mmHg 22%
    20:00 +32°C° 0 mm 2 mps 729 mmHg 23%
    21:00 +30°C° 0 mm 3 mps 729 mmHg 23%
    22:00 +29°C° 0.1 mm 2 mps 729 mmHg 24%
    23:00 +29°C° 0.1 mm 2 mps 729 mmHg 25%

    26 July, Wednesday

    Time Temperature Precipitation Wind Pressure Humidity
    00:00 +29°C° 0.1 mm 2 mps 729 mmHg 26%
    01:00 +28°C° 0 mm 2 mps 729 mmHg 28%
    02:00 +28°C° 0 mm 2 mps 729 mmHg 30%
    03:00 +27°C° 0 mm 2 mps 729 mmHg 31%
    04:00 +28°C° 0 mm 2 mps 729 mmHg 32%
    05:00 +28°C° 0 mm 2 mps 729 mmHg 33%
    06:00 +29°C° 0 mm 2 mps 729 mmHg 34%
    07:00 +31°C° 0 mm 2 mps 729 mmHg 30%
    08:00 +34°C° 0 mm 3 mps 729 mmHg 27%
    09:00 +36°C° 0 mm 3 mps 729 mmHg 23%
    10:00 +37°C° 0 mm 3 mps 729 mmHg 22%
    11:00 +38°C° 0 mm 2 mps 728 mmHg 21%
    12:00 +39°C° 0 mm 2 mps 728 mmHg 20%
    13:00 +39°C° 0 mm 2 mps 728 mmHg 20%
    14:00 +39°C° 0 mm 1 mps 728 mmHg 20%
    15:00 +40°C° 0 mm 1 mps 728 mmHg 19%
    16:00 +39°C° 0 mm 1 mps 728 mmHg 21%
    17:00 +39°C° 0 mm 1 mps 728 mmHg 22%
    18:00 +37°C° 0 mm 1 mps 728 mmHg 23%
    19:00 +35°C° 0 mm 1 mps 729 mmHg 25%
    20:00 +34°C° 0 mm 2 mps 729 mmHg 27%
    21:00 +31°C° 0 mm 2 mps 730 mmHg 29%
    22:00 +30°C° 0 mm 2 mps 730 mmHg 30%
    23:00 +29°C° 0 mm 2 mps 730 mmHg 31%

    27 July, Thursday

    Time Temperature Precipitation Wind Pressure Humidity
    00:00 +29°C° 0 mm 2 mps 730 mmHg 32%
    01:00 +28°C° 0 mm 2 mps 730 mmHg 30%
    02:00 +28°C° 0 mm 2 mps 731 mmHg 29%
    03:00 +28°C° 0 mm 2 mps 731 mmHg 28%
    04:00 +28°C° 0 mm 2 mps 731 mmHg 28%
    05:00 +29°C° 0 mm 2 mps 731 mmHg 28%
    06:00 +29°C° 0 mm 2 mps 731 mmHg 27%
    07:00 +32°C° 0 mm 2 mps 731 mmHg 25%
    08:00 +35°C° 0 mm 2 mps 732 mmHg 22%
    09:00 +37°C° 0 mm 3 mps 732 mmHg 20%
    10:00 +38°C° 0 mm 2 mps 731 mmHg 19%
    11:00 +39°C° 0 mm 2 mps 731 mmHg 18%
    12:00 +40°C° 0 mm 2 mps 731 mmHg 17%
    13:00 +40°C° 0 mm 2 mps 731 mmHg 16%
    14:00 +41°C° 0 mm 2 mps 731 mmHg 16%
    15:00 +41°C° 0 mm 1 mps 731 mmHg 16%
    16:00 +40°C° 0 mm 2 mps 731 mmHg 17%
    17:00 +40°C° 0 mm 2 mps 731 mmHg 18%
    18:00 +39°C° 0 mm 2 mps 731 mmHg 19%
    19:00 +37°C° 0 mm 2 mps 731 mmHg 23%
    20:00 +35°C° 0 mm 3 mps 732 mmHg 26%
    21:00 +33°C° 0 mm 4 mps 732 mmHg 29%
    22:00 +31°C° 0 mm 3 mps 732 mmHg 32%
    23:00 +30°C° 0 mm 3 mps 733 mmHg 34%

    28 July, Friday

    Time Temperature Precipitation Wind Pressure Humidity
    00:00 +30°C° 0 mm 3 mps 733 mmHg 37%
    01:00 +29°C° 0 mm 2 mps 733 mmHg 37%
    02:00 +29°C° 0 mm 2 mps 733 mmHg 36%
    03:00 +29°C° 0 mm 2 mps 733 mmHg 36%
    04:00 +29°C° 0 mm 2 mps 733 mmHg 36%
    05:00 +30°C° 0 mm 1 mps 733 mmHg 36%
    06:00 +30°C° 0 mm 1 mps 734 mmHg 35%
    07:00 +32°C° 0 mm 1 mps 734 mmHg 33%
    08:00 +34°C° 0 mm 1 mps 734 mmHg 31%
    09:00 +36°C° 0 mm 1 mps 734 mmHg 29%
    10:00 +38°C° 0 mm 2 mps 733 mmHg 27%
    11:00 +39°C° 0 mm 2 mps 733 mmHg 26%
    12:00 +40°C° 0 mm 2 mps 733 mmHg 24%
    13:00 +40°C° 0 mm 2 mps 733 mmHg 24%
    14:00 +42°C° 0 mm 3 mps 733 mmHg 23%
    15:00 +42°C° 0 mm 3 mps 733 mmHg 22%
    16:00 +42°C° 0 mm 3 mps 733 mmHg 23%
    17:00 +40°C° 0 mm 3 mps 733 mmHg 24%
    18:00 +40°C° 0 mm 3 mps 733 mmHg 25%
    19:00 +37°C° 0 mm 3 mps 734 mmHg 28%
    20:00 +35°C° 0 mm 4 mps 734 mmHg 31%
    21:00 +33°C° 0 mm 4 mps 735 mmHg 34%
    22:00 +32°C° 0 mm 4 mps 735 mmHg 35%
    23:00 +31°C° 0 mm 3 mps 735 mmHg 37%
    Show more